IGO670 VISR-VIDP

Flight info

Callsign IGO670
Flight time 0h 55m
Altitude 35000
Route SGR W23 RILVU W21 PANLA W23 BIKUX DCT CHG J21 UPTEX UPTEX6H
Aircraft A320/M-SDE3FGHIRWY/LB1

Departure

Time 2026-04-30 13:55
Airport Sheikh ul Alam International Airport (VISR)

Arrival

Time 2026-04-30 14:50
Airport Indira Gandhi International Airport (VIDP)
Time Latitude Longitude Altitude Speed Heading
2026-04-30 13:47 34.00106 74.76145 5587 ft 0 kts 40°
2026-04-30 13:50 34.00095 74.76133 5587 ft 2 kts 40°
2026-04-30 13:50 34.00070 74.76108 5599 ft 2 kts 40°
2026-04-30 13:50 34.00058 74.76095 5597 ft 2 kts 44°
2026-04-30 13:51 34.00050 74.76078 5598 ft 2 kts 96°
2026-04-30 13:51 34.00053 74.76059 5601 ft 2 kts 154°
2026-04-30 13:51 34.00062 74.76055 5602 ft 0 kts 163°
2026-04-30 13:52 34.00047 74.76059 5600 ft 5 kts 168°
2026-04-30 13:52 34.00011 74.76063 5605 ft 5 kts 174°
2026-04-30 13:52 33.99971 74.76058 5605 ft 7 kts 188°
2026-04-30 13:52 33.99919 74.76051 5606 ft 8 kts 185°
2026-04-30 13:53 33.99858 74.76047 5605 ft 8 kts 167°
2026-04-30 13:53 33.99847 74.76057 5605 ft 0 kts 128°
2026-04-30 13:53 33.99847 74.76058 5605 ft 0 kts 128°
2026-04-30 13:53 33.99839 74.76069 5605 ft 5 kts 128°
2026-04-30 13:54 33.99647 74.76293 5611 ft 75 kts 135°
2026-04-30 13:54 33.99121 74.76905 5607 ft 133 kts 136°
2026-04-30 13:54 33.98345 74.77809 5612 ft 176 kts 136°
2026-04-30 13:54 33.97411 74.78896 5976 ft 193 kts 136°
2026-04-30 13:55 33.96410 74.80049 6532 ft 204 kts 136°
2026-04-30 13:55 33.95313 74.81305 6834 ft 231 kts 136°
2026-04-30 13:55 33.93975 74.82527 7125 ft 254 kts 159°
2026-04-30 13:55 33.92164 74.82706 7484 ft 276 kts 195°
2026-04-30 13:56 33.90496 74.81539 8070 ft 286 kts 229°
2026-04-30 13:56 33.89617 74.79399 8847 ft 291 kts 261°
2026-04-30 13:56 33.89823 74.76985 9682 ft 295 kts 293°
2026-04-30 13:56 33.91057 74.75023 10376 ft 303 kts 322°
2026-04-30 13:57 33.93031 74.73972 10620 ft 325 kts 352°
2026-04-30 13:57 33.95357 74.74008 10813 ft 347 kts
2026-04-30 13:57 33.97835 74.74341 10944 ft 369 kts 13°
2026-04-30 13:57 34.00331 74.75325 11241 ft 384 kts 17°
2026-04-30 13:58 34.02988 74.75703 11768 ft 389 kts 354°
2026-04-30 13:58 34.07603 74.72552 13010 ft 395 kts 305°
2026-04-30 13:58 34.08744 74.69561 13641 ft 397 kts 282°
2026-04-30 13:59 34.08785 74.66247 14260 ft 400 kts 258°
2026-04-30 13:59 34.07717 74.63154 14803 ft 404 kts 235°
2026-04-30 13:59 34.05700 74.60801 15346 ft 409 kts 212°
2026-04-30 13:59 34.03048 74.59573 15885 ft 414 kts 189°
2026-04-30 14:00 34.00165 74.59678 16407 ft 419 kts 167°
2026-04-30 14:00 33.95469 74.63691 17437 ft 429 kts 122°
2026-04-30 14:00 33.94357 74.67025 17934 ft 433 kts 102°
2026-04-30 14:01 33.93771 74.70602 18438 ft 437 kts 101°
2026-04-30 14:01 33.93302 74.74224 18889 ft 440 kts 93°
2026-04-30 14:01 33.93109 74.77912 19349 ft 443 kts 99°
2026-04-30 14:01 33.92090 74.81405 19812 ft 446 kts 121°
2026-04-30 14:02 33.90084 74.84233 20293 ft 447 kts 142°
2026-04-30 14:02 33.87365 74.86009 20730 ft 447 kts 163°
2026-04-30 14:02 33.84303 74.86491 21154 ft 447 kts 184°
2026-04-30 14:02 33.81208 74.86112 21580 ft 448 kts 187°
2026-04-30 14:03 33.78091 74.85752 21980 ft 451 kts 184°
2026-04-30 14:03 33.74945 74.85615 22370 ft 454 kts 182°
2026-04-30 14:03 33.71779 74.85531 22775 ft 457 kts 182°
2026-04-30 14:03 33.68593 74.85479 23172 ft 459 kts 181°
2026-04-30 14:04 33.65390 74.85441 23558 ft 461 kts 181°
2026-04-30 14:04 33.62176 74.85402 23886 ft 464 kts 182°
2026-04-30 14:04 33.58937 74.85545 24199 ft 467 kts 174°
2026-04-30 14:04 33.55723 74.86216 24514 ft 470 kts 169°
2026-04-30 14:05 33.52514 74.87004 24837 ft 472 kts 169°
2026-04-30 14:05 33.49284 74.87790 25150 ft 475 kts 170°
2026-04-30 14:05 33.46040 74.88572 25466 ft 477 kts 170°
2026-04-30 14:05 33.42779 74.89356 25831 ft 478 kts 170°
2026-04-30 14:06 33.39530 74.90139 26317 ft 477 kts 169°
2026-04-30 14:06 33.33305 74.92859 27237 ft 479 kts 152°
2026-04-30 14:07 33.27659 74.97083 28198 ft 478 kts 149°
2026-04-30 14:07 33.24852 74.99203 28672 ft 478 kts 149°
2026-04-30 14:07 33.22036 75.01322 29134 ft 478 kts 149°
2026-04-30 14:08 33.16411 75.05538 30024 ft 477 kts 149°
2026-04-30 14:08 33.13597 75.07650 30390 ft 479 kts 149°
2026-04-30 14:08 33.07928 75.11947 30897 ft 486 kts 149°
2026-04-30 14:09 33.05060 75.14123 31149 ft 490 kts 149°
2026-04-30 14:09 33.02179 75.16309 31405 ft 494 kts 149°
2026-04-30 14:09 32.96337 75.20736 31878 ft 501 kts 150°
2026-04-30 14:10 32.93386 75.22968 32145 ft 504 kts 150°
2026-04-30 14:10 32.90418 75.25211 32382 ft 507 kts 150°
2026-04-30 14:10 32.87425 75.27469 32592 ft 511 kts 150°
2026-04-30 14:10 32.84416 75.29737 32831 ft 514 kts 150°
2026-04-30 14:11 32.81386 75.32013 33068 ft 517 kts 150°
2026-04-30 14:11 32.78334 75.34300 33309 ft 520 kts 150°
2026-04-30 14:11 32.75265 75.36597 33550 ft 523 kts 151°
2026-04-30 14:11 32.72171 75.38914 33774 ft 527 kts 150°
2026-04-30 14:12 32.69070 75.41240 33952 ft 529 kts 150°
2026-04-30 14:12 32.65954 75.43583 34177 ft 531 kts 150°
2026-04-30 14:12 32.62828 75.45928 34413 ft 532 kts 150°
2026-04-30 14:12 32.60754 75.47481 34573 ft 532 kts 150°
2026-04-30 14:13 32.56554 75.50611 34741 ft 535 kts 151°
2026-04-30 14:13 32.50110 75.55153 34745 ft 541 kts 153°
2026-04-30 14:14 32.43535 75.59541 34736 ft 543 kts 154°
2026-04-30 14:14 32.36956 75.63944 34719 ft 544 kts 153°
2026-04-30 14:15 32.30405 75.68409 34718 ft 544 kts 153°
2026-04-30 14:15 32.23858 75.72901 34710 ft 544 kts 153°
2026-04-30 14:16 32.17295 75.77376 34711 ft 544 kts 153°
2026-04-30 14:16 32.10723 75.81824 34706 ft 545 kts 153°
2026-04-30 14:17 32.04149 75.86262 34710 ft 545 kts 153°
2026-04-30 14:17 31.97566 75.90706 34718 ft 546 kts 153°
2026-04-30 14:18 31.90973 75.95159 34715 ft 546 kts 153°
2026-04-30 14:18 31.81090 76.01817 34715 ft 546 kts 153°
2026-04-30 14:19 31.71188 76.08479 34714 ft 547 kts 153°
2026-04-30 14:20 31.64628 76.12883 34715 ft 547 kts 153°
2026-04-30 14:20 31.54708 76.19509 34716 ft 547 kts 153°
2026-04-30 14:21 31.48084 76.23930 34717 ft 548 kts 153°
2026-04-30 14:22 31.38141 76.30543 34718 ft 548 kts 153°
2026-04-30 14:22 31.28184 76.37163 34712 ft 549 kts 153°
2026-04-30 14:23 31.14877 76.45985 34706 ft 551 kts 154°
2026-04-30 14:24 31.04871 76.52591 34709 ft 551 kts 154°
2026-04-30 14:25 30.91521 76.61392 34715 ft 551 kts 153°
2026-04-30 14:26 30.81497 76.67984 34716 ft 552 kts 154°
2026-04-30 14:27 30.71382 76.74369 34728 ft 548 kts 162°
2026-04-30 14:27 30.64116 76.76631 34721 ft 535 kts 180°
2026-04-30 14:28 30.54320 76.77058 34714 ft 529 kts 186°
2026-04-30 14:28 30.45717 76.77302 34714 ft 530 kts 185°
2026-04-30 14:29 30.32200 76.77703 34709 ft 531 kts 185°
2026-04-30 14:31 30.13703 76.78228 34709 ft 532 kts 186°
2026-04-30 14:31 30.02595 76.78535 34738 ft 531 kts 186°
2026-04-30 14:32 29.95211 76.78755 34233 ft 532 kts 186°
2026-04-30 14:32 29.91492 76.78857 33361 ft 537 kts 185°
2026-04-30 14:32 29.87765 76.78957 32941 ft 532 kts 185°
2026-04-30 14:33 29.84081 76.79042 32702 ft 529 kts 185°
2026-04-30 14:33 29.76749 76.79254 32170 ft 524 kts 184°
2026-04-30 14:33 29.73094 76.79368 30729 ft 525 kts 182°
2026-04-30 14:34 29.69496 76.79484 29796 ft 502 kts 182°
2026-04-30 14:34 29.66113 76.79607 28945 ft 472 kts 181°
2026-04-30 14:34 29.62929 76.79737 28175 ft 446 kts 181°
2026-04-30 14:34 29.59909 76.79875 27452 ft 422 kts 181°
2026-04-30 14:35 29.54189 76.80097 25086 ft 419 kts 183°
2026-04-30 14:35 29.51216 76.80118 23377 ft 435 kts 183°
2026-04-30 14:35 29.48165 76.80127 21566 ft 442 kts 183°
2026-04-30 14:36 29.45068 76.80155 19760 ft 448 kts 182°
2026-04-30 14:36 29.41959 76.80219 18611 ft 445 kts 182°
2026-04-30 14:36 29.38970 76.80311 18364 ft 425 kts 181°
2026-04-30 14:36 29.36051 76.80418 18245 ft 404 kts 181°
2026-04-30 14:37 29.33308 76.80518 18128 ft 384 kts 182°
2026-04-30 14:37 29.30696 76.80608 18010 ft 366 kts 182°
2026-04-30 14:37 29.28230 76.80685 17761 ft 355 kts 182°
2026-04-30 14:37 29.25783 76.80753 17322 ft 349 kts 182°
2026-04-30 14:38 29.23335 76.80813 16831 ft 346 kts 182°
2026-04-30 14:38 29.20937 76.80873 16359 ft 343 kts 182°
2026-04-30 14:38 29.18610 76.80937 16141 ft 333 kts 182°
2026-04-30 14:38 29.16338 76.81004 15992 ft 321 kts 182°
2026-04-30 14:39 29.14126 76.81067 15687 ft 316 kts 182°
2026-04-30 14:39 29.11940 76.81128 15324 ft 313 kts 182°
2026-04-30 14:39 29.09766 76.81189 14951 ft 311 kts 182°
2026-04-30 14:40 29.05466 76.81306 14228 ft 307 kts 182°
2026-04-30 14:40 29.03333 76.81366 13857 ft 306 kts 182°
2026-04-30 14:40 29.01216 76.81427 13501 ft 304 kts 182°
2026-04-30 14:40 28.99106 76.81487 13104 ft 302 kts 182°
2026-04-30 14:41 28.97013 76.81547 12710 ft 300 kts 182°
2026-04-30 14:41 28.94930 76.81606 12327 ft 298 kts 182°
2026-04-30 14:41 28.92863 76.81665 11957 ft 297 kts 182°
2026-04-30 14:41 28.90811 76.81724 11584 ft 295 kts 182°
2026-04-30 14:42 28.88758 76.81783 11200 ft 293 kts 182°
2026-04-30 14:42 28.86726 76.81841 10846 ft 292 kts 182°
2026-04-30 14:42 28.84696 76.81898 10349 ft 295 kts 182°
2026-04-30 14:42 28.82598 76.81984 9612 ft 309 kts 176°
2026-04-30 14:43 28.80498 76.82707 8769 ft 323 kts 158°
2026-04-30 14:43 28.78415 76.83781 7913 ft 333 kts 156°
2026-04-30 14:43 28.76287 76.84899 7067 ft 341 kts 156°
2026-04-30 14:43 28.74117 76.86046 6206 ft 346 kts 155°
2026-04-30 14:44 28.71926 76.87203 5329 ft 349 kts 155°
2026-04-30 14:44 28.69707 76.88332 4497 ft 349 kts 159°
2026-04-30 14:44 28.67364 76.88645 4173 ft 334 kts 186°
2026-04-30 14:44 28.65155 76.88069 3940 ft 318 kts 195°
2026-04-30 14:45 28.63114 76.87247 3716 ft 305 kts 200°
2026-04-30 14:45 28.61177 76.86463 3634 ft 285 kts 188°
2026-04-30 14:45 28.59306 76.86676 3548 ft 264 kts 154°
2026-04-30 14:45 28.57980 76.87989 3409 ft 252 kts 118°
2026-04-30 14:46 28.57639 76.89881 3265 ft 245 kts 83°
2026-04-30 14:46 28.57953 76.91740 3140 ft 233 kts 86°
2026-04-30 14:46 28.57657 76.93458 3031 ft 215 kts 112°
2026-04-30 14:46 28.57198 76.95019 2789 ft 202 kts 107°
2026-04-30 14:47 28.56864 76.96500 2548 ft 186 kts 105°
2026-04-30 14:47 28.56572 76.97865 2321 ft 169 kts 105°
2026-04-30 14:47 28.56308 76.99101 2107 ft 154 kts 106°
2026-04-30 14:47 28.56062 77.00252 1927 ft 147 kts 105°
2026-04-30 14:48 28.55824 77.01363 1750 ft 144 kts 106°
2026-04-30 14:48 28.55588 77.02465 1569 ft 145 kts 105°
2026-04-30 14:48 28.55341 77.03568 1382 ft 143 kts 104°
2026-04-30 14:48 28.55113 77.04668 1188 ft 145 kts 98°
2026-04-30 14:49 28.54875 77.05779 1013 ft 144 kts 99°
2026-04-30 14:49 28.54648 77.06877 809 ft 141 kts 100°
2026-04-30 14:49 28.54425 77.07938 751 ft 127 kts 102°
2026-04-30 14:49 28.54243 77.08802 750 ft 94 kts 106°
2026-04-30 14:50 28.54200 77.09559 746 ft 20 kts 43°
2026-04-30 14:50 28.54256 77.09538 747 ft 8 kts 273°
2026-04-30 14:51 28.54300 77.09322 750 ft 17 kts 283°
2026-04-30 14:51 28.54328 77.09188 750 ft 19 kts 284°
2026-04-30 14:51 28.54397 77.08873 749 ft 22 kts 284°
2026-04-30 14:52 28.54440 77.08696 749 ft 19 kts 295°
2026-04-30 14:52 28.54659 77.08716 750 ft 19 kts 11°
2026-04-30 14:52 28.54798 77.08754 749 ft 22 kts 15°
2026-04-30 14:53 28.54987 77.08884 747 ft 0 kts 60°
2026-04-30 14:53 28.54987 77.08885 747 ft 0 kts 60°